Location: Rumah Long Bangan
(2.8362°N, 113.7519°E)
Time: 06:34:55
(UTC+00:00)

H-2A R/B - Pass Details

Date: 24 October 2021
Orbit: 495 x 539 km, 97.3° (Epoch: 27 November)

Event Time Altitude Azimuth Distance (km) Brightness Sun altitude
Rises 21:34:38 0° 354° (N) 2,584 6.1 -9.0°
Reaches altitude 10° 21:36:54 10° 342° (NNW) 1,697 5.0 -8.5°
Maximum altitude 21:40:05 29° 282° (WNW) 940 3.4 -7.7°
Drops below altitude 10° 21:43:16 10° 220° (SW) 1,692 5.0 -6.9°
Sets 21:45:31 0° 209° (SSW) 2,574 6.1 -6.4°
